This is the latest recevied weather packets stored in our database for station/object DF1GD-10. If no packets are shown the sender has not sent any weather packets the latest 10 day(s).
| Time | Temp. | Humidity | Pressure | Rain* | Wind** | Luminosity | Snow |
|---|---|---|---|---|---|---|---|
| 1788075437 | 15.56° C | 76% | 1016 hPa | - | - | - | - |
| 1788074537 | 15.56° C | 77% | 1016 hPa | - | - | - | - |
| 1788073637 | 15.56° C | 77% | 1015.9 hPa | - | - | - | - |
| 1788072736 | 15.56° C | 75% | 1016 hPa | - | - | - | - |
| 1788071836 | 16.11° C | 67% | 1015.8 hPa | - | - | - | - |
| 1788070936 | 16.11° C | 63% | 1015.4 hPa | - | - | - | - |
| 1788070036 | 16.11° C | 64% | 1015.3 hPa | - | - | - | - |
| 1788069136 | 16.11° C | 64% | 1015.3 hPa | - | - | - | - |
| 1788068236 | 16.11° C | 64% | 1015.1 hPa | - | - | - | - |
| 1788067336 | 15.56° C | 64% | 1015.1 hPa | - | - | - | - |
| 1788066435 | 15.56° C | 64% | 1015.1 hPa | - | - | - | - |
| 1788065535 | 15° C | 65% | 1015.1 hPa | - | - | - | - |
| 1788064635 | 15° C | 64% | 1015 hPa | - | - | - | - |
| 1788063735 | 15.56° C | 64% | 1014.9 hPa | - | - | - | - |
| 1788062835 | 15.56° C | 63% | 1015 hPa | - | - | - | - |
| 1788061935 | 15.56° C | 62% | 1015 hPa | - | - | - | - |
| 1788061035 | 16.11° C | 61% | 1015 hPa | - | - | - | - |
| 1788060134 | 16.11° C | 60% | 1015.1 hPa | - | - | - | - |
| 1788059234 | 16.11° C | 60% | 1014.9 hPa | - | - | - | - |
| 1788058334 | 16.11° C | 58% | 1014.9 hPa | - | - | - | - |
| 1788057434 | 16.67° C | 57% | 1015 hPa | - | - | - | - |
| 1788056534 | 16.67° C | 57% | 1014.8 hPa | - | - | - | - |
| 1788055634 | 16.67° C | 56% | 1014.8 hPa | - | - | - | - |
| 1788054733 | 16.67° C | 55% | 1014.8 hPa | - | - | - | - |
| 1788053833 | 17.22° C | 54% | 1015 hPa | - | - | - | - |
* Rain since midnight (hover to see other rain measurements)
** Current wind speed in m/s (hover to see current wind gust speed)